Flag for Denmark Weather past 2 weeks in Esbjerg, Denmark

Now
54 °F

Passing clouds.


Feels Like: 49 °F
Forecast: 46 / 60 °F
Wind: 17 mph from North

Location: Esbjerg Airport

Current Time: Sep 22, 2014 at 10:24:34 AM

Latest Report: Sep 22, 2014 at 9:50 AM


Visibility: N/A

Pressure: 29.95 "Hg

Humidity: 58%

Dew point: 39 °F

Location of EsbjergLocation

Historic Weather in Esbjerg — Graph

°F

Esbjerg temperature yesterday

Maximum temperature yesterday: 61 °F (at 11:50 AM)
Minimum temperature yesterday: 54 °F (at 7:20 AM)
Average temperature yesterday: 58 °F

Past Weeks' High & Low Weather Summary

 TemperatureHumidityPressure
High72 °F (Sep 18, 2:20 PM)100% (Sep 7, 11:20 AM)30.33 "Hg (Sep 7, 11:20 AM)
Low43 °F (Sep 22, 6:50 AM)56% (Sep 11, 3:20 PM)29.83 "Hg (Sep 22, 2:20 AM)
Average59 °F85%30.07 "Hg
* Reported Sep 7 9:20 AM — Sep 22 9:20 AM, Esbjerg, Weather by CustomWeather, © 2014

Note: Actual official high and low records may vary slightly from our data, if they occured in-between our weather recording intervals... More about our weather records

Advertising

Esbjerg weather history for previous 24 hours

 ConditionsComfort  
Time TempWeatherWind HumidityBarometerVisibility
9:20 AM
Sep 22
52 °FPassing clouds.15 mph67%29.92 "HgN/A
8:50 AM50 °FPassing clouds.12 mph76%29.92 "HgN/A
8:20 AM48 °FPassing clouds.9 mph82%29.92 "HgN/A
7:50 AM45 °FPassing clouds.8 mph87%29.89 "HgN/A
7:20 AM45 °FPassing clouds.7 mph87%29.89 "HgN/A
6:50 AM43 °FQuite cool.7 mph93%29.89 "HgN/A
6:20 AM45 °FQuite cool.7 mph87%29.89 "HgN/A
5:50 AM45 °FQuite cool.8 mph87%29.89 "HgN/A
5:20 AM46 °FCool.8 mph82%29.86 "HgN/A
4:50 AM48 °FCool.15 mph82%29.86 "HgN/A
4:20 AM50 °FCool.20 mph76%29.86 "HgN/A
3:50 AM54 °FCool.24 mph77%29.83 "HgN/A
3:20 AM55 °FCool.16 mph67%29.83 "HgN/A
2:50 AM55 °FCool.16 mph67%29.83 "HgN/A
2:20 AM54 °FCool.15 mph72%29.83 "HgN/A
1:50 AM54 °FCool.13 mph72%29.86 "HgN/A
1:20 AM55 °FCool.16 mph67%29.86 "HgN/A
12:50 AM55 °FCool.16 mph67%29.86 "HgN/A
12:20 AM55 °FCool.17 mph67%29.86 "HgN/A
11:50 PM
Sep 21
55 °FCool.18 mph67%29.89 "HgN/A
11:20 PM55 °FCool.20 mph67%29.89 "HgN/A
10:20 PM55 °FPassing clouds.18 mph72%29.89 "HgN/A
9:50 PM57 °FPassing clouds.17 mph72%29.89 "HgN/A
9:20 PM57 °FPassing clouds.16 mph72%29.89 "HgN/A
8:20 PM57 °FPassing clouds.18 mph77%29.89 "HgN/A
7:50 PM57 °FPassing clouds.16 mph82%29.89 "HgN/A
7:20 PM55 °FPassing clouds.9 mph82%29.86 "HgN/A
6:50 PM57 °FPassing clouds.13 mph77%29.86 "HgN/A
6:20 PM59 °FPassing clouds.15 mph72%29.86 "HgN/A
5:50 PM59 °FScattered clouds.14 mph72%29.86 "HgN/A
5:20 PM61 °FScattered clouds.18 mph72%29.86 "HgN/A
4:20 PM61 °FScattered clouds.18 mph68%29.86 "HgN/A
3:50 PM61 °FScattered clouds.21 mph63%29.89 "HgN/A
3:20 PM61 °FScattered clouds.20 mph68%29.89 "HgN/A
2:50 PM61 °FPartly sunny.20 mph72%29.89 "HgN/A
2:20 PM61 °FPartly sunny.22 mph72%29.89 "HgN/A
1:50 PM61 °FScattered clouds.23 mph68%29.89 "HgN/A
1:20 PM61 °FScattered clouds.21 mph68%29.89 "HgN/A
12:50 PM61 °FScattered clouds.24 mph68%29.89 "HgN/A
12:20 PM61 °FScattered clouds.20 mph68%29.89 "HgN/A
11:50 AM61 °FPartly sunny.18 mph72%29.89 "HgN/A
11:20 AM59 °FPartly sunny.18 mph72%29.89 "HgN/A
10:50 AM59 °FPartly sunny.20 mph77%29.89 "HgN/A
10:20 AM59 °FPartly sunny.14 mph77%29.89 "HgN/A
Weather by CustomWeather, © 2014

See weather overviewHow to use our weather pages